CW0630 Weather Reports


Display with metric or nautical units.
time (UTC)temp
F
wind
direction
speed
MPH
gust
MPH
rain 1hr
in
rain 24hr
in
rain mn
in
humidity
%
barometer
mb
20260903191015 95 226 0.0 0.0 0.00 0.00 0.00 62 1015.5
20260903181027 95 229 0.0 0.0 0.00 0.00 0.00 62 1016.5
20260903171016 93 321 0.0 1.0 0.00 0.00 0.00 66 1017.1
20260903161018 91 24 2.0 2.0 0.00 0.00 0.00 68 1017.6
20260903151030 89 34 0.0 0.0 0.00 0.00 0.00 72 1017.6
20260903141021 88 27 3.0 3.0 0.00 0.00 0.00 70 1017.2
20260903131017 86 148 0.0 0.0 0.00 0.00 0.00 74 1017.4
20260903121029 79 132 0.0 0.0 0.00 0.00 0.00 91 1017.7
20260903111021 74 75 0.0 0.0 0.00 0.00 0.00 96 1017.1
20260903101012 75 74 0.0 0.0 0.00 0.00 0.00 95 1017.1
20260903091012 75 75 0.0 0.0 0.00 0.00 0.00 95 1016.6
20260903081025 75 47 0.0 0.0 0.00 0.00 0.00 95 1016.6
20260903071049 76 47 0.0 0.0 0.00 0.00 0.00 94 1016.9
20260903061043 76 47 0.0 0.0 0.00 0.00 0.00 93 1017.1
20260903051021 78 57 0.0 0.0 0.00 0.00 0.00 91 1017.6
20260903041022 78 205 0.0 0.0 0.00 0.00 0.00 90 1017.1
20260903031012 79 145 0.0 0.0 0.00 0.00 0.00 90 1017.0
20260903021022 80 143 0.0 0.0 0.00 0.00 0.00 87 1017.5
20260903011023 82 130 0.0 0.0 0.00 0.00 0.00 84 1017.6
20260903001042 83 108 1.0 1.0 0.00 0.00 0.00 81 1017.2
20260902231034 84 80 1.0 1.0 0.00 0.00 0.00 79 1017.7
20260902221017 85 121 0.0 0.0 0.00 0.00 0.00 75 1017.5
20260902211027 88 73 4.0 4.0 0.00 0.00 0.00 66 1017.2
20260902201014 94 9 7.0 7.0 0.00 0.00 0.00 59 1017.4